Tracking 25686 objects as of 26-May-2022
HD Live streaming from Space Station
objects crossing your sky now

DMSP 5D-2 F11 DEB

Track DMSP 5D-2 F11 DEB now!
10-day predictions


NORAD ID: 28318
Int'l Code: 1991-082AF
Perigee: 730.9 km
Apogee: 802.4 km
Inclination: 98.8 °
Period: 100.0 minutes
Semi major axis: 7137 km
RCS: 0.0172 m2 (small)
Launch date: November 28, 1991
Source: United States (US)
Launch site: AIR FORCE WESTERN TEST RANGE (AFWTR)

Note: This is SATELLITE DEBRIS
aabbcc
Your satellite tracking list
Your tracking list is empty




NASA's NSSDC Master Catalog

Two Line Element Set (TLE):
1 28318U 91082AF  22145.22424735  .00007230  00000-0  22881-2 0  9990
2 28318  98.7503 232.6424 0050090  13.8971  41.2204 14.39704463938242
Source of the keplerian elements: AFSPC